Location: Gwatt
(46.7204°N, 7.6223°E)
Time: 02:16:03
(UTC+00:00)

Okean 2 Rocket - Pass Details

Date: 18 September 2020
Orbit: 616 x 642 km, 82.5° (Epoch: 29 October)

Event Time Altitude Azimuth Distance (km) Brightness Sun altitude
Rises 19:40:30 0° 206° (SSW) 2,934 6.5 -21.6°
Reaches altitude 10° 19:42:50 10° 213° (SSW) 2,027 5.7 -21.9°
Maximum altitude 19:47:06 42° 284° (WNW) 921 4.4 -22.6°
Drops below altitude 10° 19:51:23 10° 356° (N) 2,030 6.1 -23.2°
Sets 19:53:44 0° 4° (N) 2,938 6.9 -23.6°
